Date String (YYYY-MM-DD hh:mm:ss) UTC,Instrument flags,absolute air pressure of the measurement (hPa),sample flow rate (lpm),inlet stack bypass flow (lpm),air temperature of the measurement (°C),ambient temperature measured by the external sensor (°C),aerosol sample conditioner tube jacket temperature (°C),OPC LED temperature (°C),internal box temperature (°C),relative humidity of the measurement (%),span deviation,mass concentration of particles derived from Lorenz-Mie calculation of OPC scattering (μg/m³),mass concentration of particles derived from Lorenz-Mie calculation of OPC scattering (μg/m³),mass concentration of particles derived from Lorenz-Mie calculation of OPC scattering (μg/m³)
DateTimeUTC,F1_M11,P_M11,Q1_M11,Q2_M11,T1_M11,T2_M11,T3_M11,T4_M11,T5_M11,U1_M11,ZSPAN_M11,X0_M11,X2_M11,X1_M11
2023-11-26 08:00:00,SystemResetWarning,0830.8,5.01,000.00,018.8,017.7,000.0,027.3,020.0,12.4,0000.0,0004.47,0003.67,0003.53
2023-11-26 08:01:00,SystemResetWarning,0830.8,5.01,000.00,018.8,018.1,000.0,027.2,020.4,12.4,0000.0,0004.36,0003.61,0003.49
2023-11-26 08:02:00,SystemResetWarning,0830.9,5.00,000.00,019.0,018.8,000.0,027.2,020.8,12.3,0000.0,0004.32,0003.59,0003.46
2023-11-26 08:03:00,SystemResetWarning,0830.9,4.99,000.00,019.0,019.0,000.0,027.2,020.5,12.2,0000.0,0004.39,0003.58,0003.44
2023-11-26 08:04:00,SystemResetWarning,0830.9,4.99,000.00,019.0,018.7,000.0,027.2,020.1,12.3,0000.0,0004.39,0003.55,0003.40
2023-11-26 08:05:00,SystemResetWarning,0830.9,5.00,000.00,018.9,018.5,000.0,027.2,020.0,12.3,0000.0,0004.24,0003.48,0003.34
2023-11-26 08:06:00,SystemResetWarning,0830.9,5.00,000.00,018.9,018.3,000.0,027.2,020.0,12.3,0000.0,0004.06,0003.42,0003.30
2023-11-26 08:07:00,SystemResetWarning,0830.9,5.00,000.00,018.8,018.2,000.0,027.3,020.0,12.3,0000.0,0004.02,0003.39,0003.27
2023-11-26 08:08:00,SystemResetWarning,0830.8,5.00,000.00,018.8,018.0,000.0,027.3,020.0,12.3,0000.0,0003.97,0003.35,0003.23
2023-11-26 08:09:00,SystemResetWarning,0830.8,5.00,000.00,018.8,017.9,000.0,027.3,020.0,12.3,0000.0,0003.92,0003.32,0003.20
2023-11-26 08:10:00,SystemResetWarning,0830.8,5.00,000.00,018.8,017.8,000.0,027.3,020.0,12.3,0000.0,0003.89,0003.30,0003.17
2023-11-26 08:11:00,SystemResetWarning,0830.7,5.00,000.00,018.8,017.8,000.0,027.2,020.1,12.3,0000.0,0003.87,0003.28,0003.15
2023-11-26 08:12:00,SystemResetWarning,0830.8,5.01,000.00,018.9,018.3,000.0,027.2,020.6,12.3,0000.0,0003.83,0003.26,0003.14
2023-11-26 08:13:00,SystemResetWarning,0830.8,5.00,000.00,019.0,019.0,000.0,027.2,020.8,12.2,0000.0,0003.77,0003.24,0003.13
2023-11-26 08:14:00,SystemResetWarning,0830.8,4.98,000.00,019.0,018.9,000.0,027.2,020.2,12.2,0000.0,0003.65,0003.20,0003.11
2023-11-26 08:15:00,SystemResetWarning,0830.8,5.01,000.00,018.9,018.6,000.0,027.2,020.0,12.2,0000.0,0003.61,0003.19,0003.10
2023-11-26 08:16:00,SystemResetWarning,0830.9,5.01,000.00,018.9,018.4,000.0,027.2,020.0,12.3,0000.0,0003.50,0003.17,0003.10
2023-11-26 08:17:00,SystemResetWarning,0830.9,5.01,000.00,018.8,018.2,000.0,027.3,020.0,12.3,0000.0,0003.51,0003.17,0003.08
2023-11-26 08:18:00,SystemResetWarning,0830.9,5.00,000.00,018.8,018.1,000.0,027.3,020.0,12.3,0000.0,0003.54,0003.16,0003.05
2023-11-26 08:19:00,SystemResetWarning,0831.0,5.00,000.00,018.8,017.9,000.0,027.3,020.0,12.3,0000.0,0003.51,0003.14,0003.01
2023-11-26 08:20:00,SystemResetWarning,0831.0,5.00,000.00,018.8,017.8,000.0,027.3,020.0,12.2,0000.0,0003.42,0003.11,0002.95
2023-11-26 08:21:00,SystemResetWarning,0831.0,5.00,000.00,018.8,017.8,000.0,027.3,020.1,12.2,0000.0,0003.34,0003.05,0002.89
2023-11-26 08:22:00,SystemResetWarning,0831.0,5.02,000.00,018.9,018.3,000.0,027.2,020.5,12.2,0000.0,0003.24,0002.98,0002.85
2023-11-26 08:23:00,SystemResetWarning,0831.0,5.00,000.00,019.0,019.0,000.0,027.2,020.8,12.1,0000.0,0003.17,0002.92,0002.79
2023-11-26 08:24:00,SystemResetWarning,0831.0,4.99,000.00,019.0,019.1,000.0,027.2,020.4,12.1,0000.0,0003.07,0002.84,0002.73
2023-11-26 08:25:00,SystemResetWarning,0831.0,5.00,000.00,019.0,018.8,000.0,027.2,020.0,12.2,0000.0,0003.03,0002.79,0002.68
2023-11-26 08:26:00,SystemResetWarning,0831.0,5.01,000.00,018.9,018.6,000.0,027.2,020.0,12.2,0000.0,0002.97,0002.73,0002.61
2023-11-26 08:27:00,SystemResetWarning,0831.0,5.00,000.00,018.9,018.4,000.0,027.3,020.0,12.3,0000.0,0002.97,0002.70,0002.57
2023-11-26 08:28:00,SystemResetWarning,0831.0,5.00,000.00,018.9,018.2,000.0,027.3,020.0,12.3,0000.0,0002.95,0002.66,0002.53
2023-11-26 08:29:00,SystemResetWarning,0831.0,5.00,000.00,018.8,018.1,000.0,027.3,020.0,12.3,0000.0,0002.85,0002.61,0002.50
2023-11-26 08:30:00,SystemResetWarning,0831.0,5.00,000.00,018.8,017.9,000.0,027.3,020.0,12.4,0000.0,0002.79,0002.57,0002.47
2023-11-26 08:31:00,SystemResetWarning,0831.0,5.00,000.00,018.8,017.8,000.0,027.3,020.0,12.3,0000.0,0002.78,0002.55,0002.46
2023-11-26 08:32:00,SystemResetWarning,0830.9,5.00,000.00,018.8,017.9,000.0,027.2,020.2,12.3,0000.0,0002.77,0002.54,0002.44
2023-11-26 08:33:00,SystemResetWarning,0830.9,5.01,000.00,018.9,018.5,000.0,027.2,020.7,12.3,0000.0,0002.80,0002.55,0002.43
2023-11-26 08:34:00,SystemResetWarning,0831.0,4.99,000.00,019.0,019.0,000.0,027.2,020.7,12.2,0000.0,0002.85,0002.57,0002.43
2023-11-26 08:35:00,SystemResetWarning,0830.9,4.99,000.00,019.0,018.9,000.0,027.2,020.2,12.3,0000.0,0002.92,0002.60,0002.44
2023-11-26 08:36:00,SystemResetWarning,0831.0,5.01,000.00,018.9,018.6,000.0,027.2,020.0,12.3,0000.0,0002.95,0002.60,0002.42
2023-11-26 08:37:00,SystemResetWarning,0831.1,5.00,000.00,018.9,018.4,000.0,027.3,020.0,12.4,0000.0,0002.90,0002.56,0002.39
2023-11-26 08:38:00,SystemResetWarning,0831.1,5.00,000.00,018.9,018.2,000.0,027.3,020.0,12.4,0000.0,0002.86,0002.54,0002.37
2023-11-26 08:39:00,SystemResetWarning,0831.1,5.00,000.00,018.8,018.1,000.0,027.3,020.0,12.4,0000.0,0002.90,0002.54,0002.36
2023-11-26 08:40:00,SystemResetWarning,0831.0,5.00,000.00,018.8,017.9,000.0,027.3,020.0,12.5,0000.0,0002.87,0002.52,0002.34
2023-11-26 08:41:00,SystemResetWarning,0831.0,5.00,000.00,018.8,017.8,000.0,027.3,020.0,12.5,0000.0,0002.85,0002.49,0002.31
2023-11-26 08:42:00,SystemResetWarning,0831.0,5.00,000.00,018.8,017.8,000.0,027.3,020.1,12.5,0000.0,0003.17,0002.49,0002.29
2023-11-26 08:43:00,SystemResetWarning,0831.0,5.01,000.00,018.9,018.4,000.0,027.2,020.6,12.5,0000.0,0003.31,0002.49,0002.26
2023-11-26 08:44:00,SystemResetWarning,0830.9,4.99,000.00,019.0,019.0,000.0,027.2,020.7,12.4,0000.0,0003.30,0002.47,0002.24
2023-11-26 08:45:00,SystemResetWarning,0830.9,4.99,000.00,019.0,018.8,000.0,027.2,020.2,12.4,0000.0,0003.20,0002.42,0002.21
2023-11-26 08:46:00,SystemResetWarning,0830.9,5.01,000.00,018.9,018.6,000.0,027.2,020.0,12.4,0000.0,0003.32,0002.38,0002.18
2023-11-26 08:47:00,SystemResetWarning,0830.9,5.01,000.00,018.9,018.4,000.0,027.3,020.0,12.4,0000.0,0003.30,0002.33,0002.14
2023-11-26 08:48:00,SystemResetWarning,0831.0,5.01,000.00,018.8,018.2,000.0,027.3,020.0,12.4,0000.0,0003.33,0002.33,0002.14
2023-11-26 08:49:00,SystemResetWarning,0831.0,4.99,000.00,018.8,018.0,000.0,027.3,020.0,12.4,0000.0,0003.43,0002.37,0002.15
2023-11-26 08:50:00,SystemResetWarning,0831.0,4.99,000.00,018.8,017.9,000.0,027.3,020.0,12.4,0000.0,0003.44,0002.34,0002.14
2023-11-26 08:51:00,SystemResetWarning,0831.0,4.99,000.00,018.8,017.7,000.0,027.3,020.0,12.3,0000.0,0003.44,0002.34,0002.15
2023-11-26 08:52:00,SystemResetWarning,0831.0,5.01,000.00,018.8,017.9,000.0,027.2,020.3,12.3,0000.0,0003.50,0002.37,0002.15
2023-11-26 08:53:00,SystemResetWarning,0831.1,5.01,000.00,018.9,018.7,000.0,027.2,020.7,12.3,0000.0,0003.19,0002.36,0002.14
2023-11-26 08:54:00,SystemResetWarning,0831.1,4.99,000.00,019.0,018.9,000.0,027.2,020.5,12.3,0000.0,0003.03,0002.34,0002.15
2023-11-26 08:55:00,SystemResetWarning,0831.1,4.99,000.00,018.9,018.7,000.0,027.2,020.0,12.4,0000.0,0003.09,0002.34,0002.15
2023-11-26 08:56:00,SystemResetWarning,0831.1,5.00,000.00,018.9,018.4,000.0,027.3,020.0,12.4,0000.0,0003.10,0002.35,0002.15
2023-11-26 08:57:00,SystemResetWarning,0831.1,5.00,000.00,018.8,018.2,000.0,027.3,020.0,12.4,0000.0,0002.91,0002.31,0002.12
2023-11-26 08:58:00,SystemResetWarning,0831.1,5.00,000.00,018.8,018.0,000.0,027.3,020.0,12.3,0000.0,0002.87,0002.30,0002.10
2023-11-26 08:59:00,SystemResetWarning,0831.1,5.00,000.00,018.8,017.9,000.0,027.3,020.0,12.3,0000.0,0002.85,0002.28,0002.06
